Погода в Анкаре

Турция     39°55′14″N   32°51′14″E
темп.,
°C
ветер,
м/с
пор.,
м/с
влажн.,
%
обл.,
%
осадки,
мм/ч
давл.,
гПа
погр.,
м
15 апреля, чт
чт1500:00+9ююз2254100 0.0 101514
03:00+8юз2262100 0.0 101620
06:00+8ююз2268100 0.0 101613
09:00+11юз2557100 0.0 1017608
12:00+15зюз57345 0.0 10162041
15:00+17зюз692895 0.0 10143083
18:00+16юз46379 0.0 10131656
21:00+12вюв2249100 0.0 101416
16 апреля, пт
пт1600:00+11ююз225398 0.0 101411
03:00+11ююз1154100 0.0 101412
06:00+9ююз2262100 0.0 101511
09:00+12юз245591 0.0 1016418
12:00+16зюз584093 0.0 10161603
15:00+18з6737100 0.0 10151944
18:00+17зсз4542100 0.0 1014835
21:00+13всв2252100 0.0 101510
17 апреля, сб
сб1700:00+13св1153100 0.0 101511
03:00+12зсз1158100 0.0 101613
06:00+9ссз1171100 0.0 101610
09:00+14зюз1254100 0.0 1018312
12:00+13сз1265100 0.4 1018207
15:00+15зюз3666100 0.5 1018558
18:00+13юв2275100 1.4 1017238
21:00+12всв2279100 1.4 101632
18 апреля, вс
вс1800:00+11всв2280100 0.0 101615
03:00+11всв2281100 0.0 101511
06:00+11ю1179100 0.1 101511
09:00+15юв2362100 0.3 1015164
12:00+20юз81540100 0.0 10162205
15:00+21зюз111344100 0.0 10152346
18:00+18зюз81356100 0.1 10161141
21:00+15юз8146675 0.2 1019727
19 апреля, пн
пн1900:00+13сз0175100 0.0 101617
03:00+13в2273100 0.0 101524
06:00+13всв2270100 0.0 101326
09:00+17ю3953100 0.0 1012453
12:00+24ююз101931100 0.0 10082671
15:00+24ю102233100 0.0 10053215
18:00+24ююз132228100 0.0 10021844
21:00+20ююз101735100 0.0 1002603